Вернуться в каталог

KUIPER-00455

АктивенСвязьLEO
NORAD 68949·PAYLOAD·🇺🇸 United States

Запущен Apr 30, 2026 с Guiana Space Centre

Loading…

Ближайшие Пролёты (ближайшие 24 часа)

TLE

СвежийSource: CelesTrak SupGP

Эпоха: Sep 14, 2026, 21:41 UTC

1 68949C 26098AG  26257.90393519  .00005404  00000+0  70749-3 0  2571
2 68949  51.9007  26.4333 0001873 125.2381 100.8173 14.79916792    18

Отслеживайте KUIPER-00455 в реальном времени с AllMySat

Download on the App Store